New Orleans Lakefront, LA

2:07 PM CDT on June 23, 2017 (GMT -0500)
Lakefront

Weather History for KNEW - November, 2012

Change the Weather History Date:

Friday, November 23, 2012

  Actual Average Record
Temperature  
Mean Temperature 64 °F 61 °F  
Max Temperature 76 °F 70 °F 85 °F (1973)
Min Temperature 51 °F 52 °F 29 °F (1976)
Degree Days  
Heating Degree Days 1 6  
Month to date heating degree days 105 91  
Since 1 July heating degree days 132 116  
Cooling Degree Days 0 2  
Month to date cooling degree days 36 60  
Year to date cooling degree days 3374 2969  
Growing Degree Days 14 (Base 50)    
Moisture  
Dew Point 56 °F    
Average Humidity 71    
Maximum Humidity 96    
Minimum Humidity 46    
Precipitation  
Precipitation 0.00 in 0.15 in 1.65 in (1948)
Month to date precipitation 1.46 3.38  
Year to date precipitation 62.11 56.10  
Snow  
Snow 0.00 in - - ()
Month to date snowfall 0.0  
Since 1 July snowfall 0.0  
Since 1 September snowfall 0.0  
Snow Depth 0.00 in    
Sea Level Pressure  
Sea Level Pressure 30.21 in    
Wind  
Wind Speed 5 mph (NW)    
Max Wind Speed 16 mph    
Max Gust Speed 21 mph    
Visibility 7 miles    
Events      
T = Trace of Precipitation, MM = Missing Value Source: NWS Daily Summary

Daily Weather History Graph

Daily Weather History Graph

Search for Another Location

Airport or City:

Trip Planner

Search our weather history database for the weather conditions in past years. The results will help you decide how hot, cold, wet, or windy it might be!

Date:

Astronomy

Nov. 23, 2012 Rise Set
Actual Time 6:32 AM CST 5:00 PM CST
Civil Twilight 6:06 AM CST 5:26 PM CST
Nautical Twilight 5:37 AM CST 5:55 PM CST
Astronomical Twilight 5:08 AM CST 6:24 PM CST
Moon 2:00 PM CST 2:08 AM CST
Length of Visible Light 11h 19m
Length of Day
10h 28m
Waxing Gibbous, 80% of the Moon is Illuminated
Nov 23
Waxing Gibbous
Nov 28
Full
Dec 6
Last Quarter
Dec 13
New
Dec 19
First Quarter

Hourly Weather History & Observations

Time (CST) Temp. Dew Point Humidity Pressure Visibility Wind Dir Wind Speed Gust Speed Precip Events Conditions
12:53 AM 57.0 °F 52.0 °F 83% 30.20 in 7.0 mi South 3.5 mph - N/A   Clear
1:53 AM 57.0 °F 53.1 °F 87% 30.20 in 6.0 mi SSW 4.6 mph - N/A   Clear
2:53 AM 55.9 °F 53.1 °F 90% 30.20 in 5.0 mi SSW 5.8 mph - N/A   Clear
3:53 AM 57.0 °F 53.1 °F 87% 30.20 in 5.0 mi SSW 3.5 mph - N/A   Clear
4:53 AM 55.9 °F 52.0 °F 87% 30.21 in 5.0 mi Calm Calm - N/A   Partly Cloudy
5:53 AM 59.0 °F 54.0 °F 83% 30.22 in 6.0 mi Calm Calm - N/A   Haze
6:53 AM 61.0 °F 57.9 °F 90% 30.23 in 4.0 mi Calm Calm - N/A   Overcast
7:53 AM 62.1 °F 57.9 °F 86% 30.25 in 4.0 mi NE 6.9 mph - N/A   Overcast
8:53 AM 62.1 °F 59.0 °F 90% 30.26 in 4.0 mi NE 8.1 mph - N/A   Overcast
9:53 AM 66.0 °F 57.0 °F 73% 30.26 in 6.0 mi Calm Calm - N/A   Haze
10:53 AM 70.0 °F 57.9 °F 65% 30.24 in 10.0 mi Variable 5.8 mph - N/A   Partly Cloudy
11:53 AM 73.0 °F 53.1 °F 49% 30.22 in 10.0 mi Calm Calm - N/A   Partly Cloudy
12:53 PM 71.1 °F 57.0 °F 61% 30.19 in 9.0 mi NW 4.6 mph - N/A   Scattered Clouds
1:53 PM 69.1 °F 61.0 °F 75% 30.17 in 5.0 mi NW 4.6 mph - N/A   Haze
2:53 PM 70.0 °F 57.0 °F 63% 30.16 in 8.0 mi West 4.6 mph - N/A   Clear
3:53 PM 69.1 °F 59.0 °F 70% 30.16 in 8.0 mi WSW 4.6 mph - N/A   Clear
4:53 PM 66.9 °F 60.1 °F 79% 30.16 in 8.0 mi West 4.6 mph - N/A   Clear
5:53 PM 66.9 °F 59.0 °F 76% 30.17 in 10.0 mi West 4.6 mph - N/A   Scattered Clouds
6:53 PM 66.9 °F 59.0 °F 76% 30.19 in 10.0 mi NNW 11.5 mph - N/A   Scattered Clouds
7:53 PM 66.0 °F 59.0 °F 78% 30.19 in 10.0 mi NNW 5.8 mph - N/A   Overcast
8:53 PM 64.0 °F 59.0 °F 84% 30.20 in 9.0 mi North 6.9 mph - N/A   Partly Cloudy
9:53 PM 63.0 °F 57.0 °F 81% 30.22 in 8.0 mi North 15.0 mph - N/A   Partly Cloudy
10:35 PM 62.6 °F 57.2 °F 82% 30.24 in 7.0 mi North 11.5 mph - N/A   Mostly Cloudy
10:46 PM 62.6 °F 57.2 °F 82% 30.24 in 7.0 mi North 9.2 mph - N/A   Overcast
10:53 PM 62.1 °F 57.0 °F 84% 30.22 in 7.0 mi North 10.4 mph - N/A   Overcast
11:53 PM 61.0 °F 50.0 °F 67% 30.22 in 10.0 mi North 18.4 mph - N/A   Mostly Cloudy